Location: Burla
(50.9568°N, 10.4983°E)
Time: 19:02:59
(UTC+00:00)

Cosmos 407 Rocket - Pass Details

Date: 18 January 2026
Orbit: 738 x 782 km, 74.0° (Epoch: 18 February)

Event Time Altitude Azimuth Distance (km) Brightness Sun altitude
Rises 05:14:37 0° 192° (SSW) 3,172 6.7 -17.9°
Reaches altitude 10° 05:16:58 10° 190° (S) 2,258 5.9 -17.6°
Maximum altitude 05:22:01 64° 110° (ESE) 833 3.9 -16.8°
Drops below altitude 10° 05:27:10 10° 29° (NNE) 2,302 6.2 -16.0°
Sets 05:29:34 0° 27° (NNE) 3,239 6.9 -15.6°
